Theta_e
306 305 305 305 305 306 305 305 305 303 303 304 304 306 308 308 307 308 307 307 307 308 311 311 310 309 308 308 307 308 308 308 308 307 307 307 307 306 306 306 306 306 306 306 306 306 307 309 311 311 311 311 311 311 310 310 310 310 311 314 318 320 322 325 327 329 328 328 329 328 325 326 324 324 327 324 322 319 317 323 325 315 312 316 314 315 324
306 306 306 306 306 306 306 306 305 304 303 304 305 306 308 308 308 309 307 307 307 309 311 311 310 310 310 309 308 308 308 308 308 308 308 308 307 306 307 306 306 306 306 306 306 307 308 310 311 310 311 311 311 310 310 310 310 310 311 315 317 318 319 322 328 334 329 324 325 328 328 326 321 324 328 323 324 324 321 327 326 316 314 313 313 317 323
306 306 306 306 306 306 306 306 306 304 303 303 304 306 307 308 308 309 306 306 308 309 310 310 310 310 311 310 309 308 308 308 308 308 308 308 307 307 307 306 306 307 307 307 308 308 308 309 310 310 311 311 310 310 309 310 310 311 313 315 315 317 318 320 328 334 330 326 326 327 328 327 326 327 325 325 327 322 320 324 318 315 319 317 313 317 322
306 306 306 306 306 306 306 306 306 305 304 302 304 307 308 307 307 307 306 306 307 308 308 308 308 309 311 311 310 308 309 308 308 308 308 307 306 307 307 307 307 308 308 308 308 308 307 308 309 309 310 310 310 309 309 310 310 312 315 315 314 315 317 318 323 327 325 325 326 324 325 325 324 326 325 324 327 323 323 323 317 322 327 319 319 323 318
306 306 307 306 307 306 306 306 306 306 304 302 304 307 308 308 308 307 306 307 307 306 307 306 307 309 310 311 310 309 309 309 308 308 308 307 307 308 308 307 308 309 309 308 308 308 308 307 308 309 309 310 309 309 309 310 311 313 313 312 313 315 315 315 319 320 318 319 320 320 322 324 324 325 325 324 326 325 321 317 320 333 326 315 329 337 318
306 307 307 307 307 306 306 306 305 306 305 303 305 308 308 308 308 305 306 307 307 306 306 306 306 308 311 311 310 309 310 310 310 309 308 307 307 308 309 308 309 309 308 308 309 309 308 308 308 309 309 309 309 310 310 310 311 311 310 310 312 314 314 314 315 315 314 315 318 320 323 325 327 328 326 325 325 323 320 318 327 337 325 320 342 350 326
307 307 307 307 307 307 306 306 306 306 306 304 305 309 308 307 307 306 305 306 306 305 305 305 307 310 311 312 310 309 309 309 309 308 308 308 308 308 309 309 309 309 308 309 309 310 309 308 309 309 309 309 311 311 311 311 310 308 307 309 311 313 315 316 314 314 314 315 319 322 323 326 327 328 330 329 326 324 323 323 329 336 333 339 360 356 335
307 307 307 307 307 307 306 306 307 306 306 305 305 307 308 308 308 307 306 305 305 305 305 306 309 310 311 312 311 309 309 309 309 308 308 309 309 308 309 309 308 308 308 309 309 309 309 309 309 309 308 309 312 313 312 311 310 307 307 308 310 312 315 315 313 313 315 317 321 322 322 324 325 328 332 333 329 326 324 325 328 330 329 340 357 351 342
307 307 307 307 307 307 307 307 307 307 306 306 306 306 307 307 306 307 307 306 305 305 306 306 308 311 312 313 312 310 309 310 309 308 308 309 309 309 309 309 308 308 308 309 310 309 309 309 308 307 307 308 311 314 311 309 308 308 307 308 310 311 312 313 313 313 316 318 319 320 322 325 327 329 333 334 331 325 324 325 326 329 329 335 343 341 342
307 307 307 307 307 307 307 307 307 307 307 307 306 306 307 306 306 306 306 306 305 305 305 305 308 311 312 311 311 310 309 310 309 309 308 308 309 309 309 308 309 309 309 310 310 308 308 308 307 307 307 307 307 309 309 308 308 308 308 308 309 310 312 313 313 314 318 317 315 319 324 327 329 328 329 332 331 332 335 331 329 336 336 333 335 341 352
307 307 307 307 307 307 307 307 307 307 307 308 307 307 307 306 306 306 306 306 306 305 305 305 307 309 308 308 308 308 308 309 310 310 310 309 309 309 308 309 310 310 310 309 309 308 307 307 307 307 307 308 307 308 308 308 308 309 308 309 309 310 312 313 313 316 317 315 316 324 326 327 331 331 329 331 335 342 347 344 342 345 343 339 340 349 359
307 307 307 307 307 307 307 307 307 307 307 307 307 307 307 306 306 306 306 306 306 305 305 305 305 306 306 306 307 308 309 309 309 310 310 310 310 309 308 309 310 311 310 308 307 307 307 308 308 308 308 308 308 308 308 308 308 309 308 308 309 310 311 312 314 316 317 318 326 335 332 330 335 332 328 332 336 343 349 347 346 346 344 348 352 352 350
307 307 307 307 307 307 307 307 307 307 308 308 308 308 308 307 306 306 306 306 306 305 305 305 305 305 305 306 307 308 310 309 308 309 310 310 309 309 308 309 309 309 308 307 307 308 310 311 311 309 309 309 309 309 309 308 308 308 308 309 309 309 311 313 314 317 320 323 331 338 334 333 335 331 329 332 332 336 345 347 345 344 343 345 348 349 348
307 307 307 307 307 307 307 307 307 308 308 308 308 308 308 307 306 306 306 306 306 306 305 305 305 305 306 307 307 308 309 309 309 310 309 309 309 309 309 309 309 308 308 309 310 311 312 312 312 311 310 310 311 311 310 309 309 309 308 309 308 308 311 312 314 320 323 321 324 333 338 340 339 333 329 330 330 333 343 349 345 342 342 343 345 349 351
307 307 307 307 307 307 307 307 308 308 308 308 308 308 308 308 307 306 306 306 306 306 305 305 306 306 307 307 306 307 309 311 311 310 309 308 308 309 309 309 309 308 308 311 314 314 312 312 312 312 311 311 312 312 311 311 311 310 309 309 308 309 311 312 316 321 322 319 321 333 345 347 341 332 327 327 330 331 336 347 346 342 339 341 343 346 349
307 307 307 307 307 307 307 308 308 308 308 308 308 308 308 308 308 307 306 306 307 307 306 305 305 305 306 306 306 308 311 312 311 310 309 309 309 309 310 309 308 310 312 314 315 314 313 312 312 312 312 311 311 311 312 313 315 314 311 309 308 309 311 312 315 318 319 318 319 328 341 344 335 329 328 328 330 330 334 346 348 343 338 340 344 346 346
307 306 307 307 307 308 308 308 308 308 308 308 308 308 308 308 308 308 307 306 307 307 306 305 305 305 306 307 309 310 311 312 312 311 311 311 309 309 310 308 309 313 315 315 315 314 313 313 312 313 313 311 310 312 313 314 316 317 315 312 310 310 311 312 313 315 317 319 320 327 341 342 331 327 329 329 329 332 341 349 348 341 337 340 342 345 346
307 307 307 308 308 308 308 308 308 308 308 308 308 309 309 308 308 308 307 307 307 307 306 305 306 306 306 308 309 308 309 311 312 312 311 311 311 311 311 309 310 314 314 313 313 313 313 312 311 313 314 312 311 313 314 314 316 317 317 317 315 312 311 313 314 314 316 319 320 325 336 336 329 328 329 328 331 341 349 351 346 338 337 340 341 344 345
307 307 308 308 309 309 309 309 309 309 309 308 309 309 309 308 308 308 308 308 308 307 307 306 306 306 306 307 308 308 308 310 312 311 311 311 312 311 310 309 311 314 315 313 313 313 313 313 313 312 313 314 314 313 314 315 316 316 316 318 319 316 313 313 314 314 315 316 318 324 333 331 328 329 328 329 338 347 347 344 339 334 334 336 337 342 344
307 308 308 309 309 309 309 309 309 309 309 309 309 309 309 309 308 308 308 308 308 308 307 307 307 307 307 307 308 308 309 310 312 312 311 311 311 310 311 312 313 314 314 313 313 313 313 314 315 314 314 316 316 314 314 314 314 315 315 317 319 319 316 315 314 314 315 316 320 328 333 329 327 331 334 335 340 345 343 338 333 331 331 332 336 340 341
307 308 308 308 309 308 309 309 309 309 309 309 309 309 309 309 309 309 308 308 309 309 308 308 308 308 308 308 308 309 309 309 310 310 310 310 311 311 311 312 312 313 312 312 312 312 313 313 314 313 313 314 314 314 314 314 313 315 315 316 317 318 318 318 318 316 317 319 323 327 329 327 328 334 338 334 333 336 337 334 331 329 329 329 334 337 338
308 308 308 308 308 308 308 309 309 309 309 309 309 309 310 310 309 309 309 308 308 308 308 308 308 309 308 309 309 309 309 309 309 309 309 310 311 312 311 310 312 313 314 313 313 312 313 314 314 313 312 314 314 314 313 314 315 317 316 315 317 317 316 318 320 319 318 320 321 322 323 325 328 331 332 330 328 328 328 329 329 329 328 329 331 334 336
308 308 308 308 308 308 308 308 309 309 309 309 309 309 309 309 309 310 309 309 308 309 309 308 309 309 309 310 310 310 310 310 309 309 309 310 311 312 311 310 311 312 313 314 315 314 313 313 314 313 313 314 314 313 313 314 316 318 317 315 315 315 314 316 319 319 319 320 319 318 319 322 324 325 326 327 327 326 325 328 329 327 326 328 329 331 332
308 308 308 308 308 308 308 309 308 309 309 309 309 309 309 309 309 309 310 310 310 310 310 310 310 311 311 310 310 310 311 311 310 310 310 310 310 312 312 311 311 313 314 315 314 313 313 313 313 314 314 313 313 314 314 314 314 315 315 314 313 313 313 314 316 317 319 320 318 316 317 320 321 322 323 324 325 325 325 327 328 325 325 329 330 328 328
308 308 308 308 308 308 308 308 309 309 308 308 308 309 309 309 309 309 310 310 310 311 312 312 311 311 311 310 311 311 311 311 311 311 311 310 310 311 311 310 310 313 315 314 313 312 313 312 312 313 313 312 313 314 314 314 314 313 313 313 313 313 313 314 315 316 318 318 317 316 319 321 320 320 321 321 323 324 323 323 324 324 325 329 331 328 327
308 308 308 308 308 308 308 308 308 308 308 308 308 308 308 309 309 309 310 310 310 311 312 312 311 310 310 311 311 311 311 311 311 311 311 311 311 310 310 310 309 309 310 312 312 311 311 311 312 312 312 312 313 313 312 312 313 312 311 311 311 312 314 314 315 315 315 315 317 319 321 320 318 320 321 319 320 322 323 322 323 324 325 326 327 328 328
308 308 308 309 308 308 308 308 308 308 308 308 308 308 308 308 308 309 310 310 311 312 313 313 312 311 311 311 311 311 311 311 312 312 312 311 311 311 310 310 311 312 313 312 311 311 312 311 311 311 311 312 312 312 312 312 312 311 311 311 310 311 312 313 314 315 314 315 318 319 318 317 319 321 322 322 320 322 323 323 323 324 324 323 324 327 328
309 309 309 309 308 308 308 308 309 309 308 308 308 308 309 309 310 310 310 311 311 312 313 312 312 311 311 311 311 311 311 311 312 313 313 312 311 311 310 311 314 316 316 314 312 311 312 312 311 311 311 311 312 312 311 312 312 312 311 311 310 311 312 311 312 314 314 315 316 316 316 319 322 322 322 323 323 323 323 323 323 323 324 324 324 326 329
311 311 311 310 310 309 309 310 311 312 311 311 310 310 311 312 311 311 312 312 311 311 312 312 311 312 312 311 310 311 312 312 313 314 314 313 313 312 312 314 316 316 316 316 313 311 311 311 311 311 311 311 312 311 311 312 312 312 311 311 310 310 311 311 311 312 312 312 313 315 317 319 319 319 320 323 325 324 322 322 322 323 324 323 323 326 329
312 312 311 311 311 311 311 312 313 313 313 312 311 312 314 315 313 312 312 313 312 311 312 312 311 311 311 310 310 311 312 313 314 314 314 315 315 314 314 315 315 315 316 316 314 312 311 312 311 311 311 311 311 311 311 312 312 311 310 310 310 310 310 310 311 311 311 312 313 314 315 316 316 318 321 322 323 322 321 322 323 323 324 323 324 327 329
313 312 312 312 313 312 311 313 313 313 314 313 313 315 317 316 313 312 312 312 311 311 311 311 311 311 310 311 311 312 313 314 314 315 315 315 315 314 313 314 315 315 315 315 313 310 310 310 310 310 311 310 310 310 310 311 311 312 311 310 310 310 309 309 310 310 311 311 312 312 313 314 316 319 320 321 320 319 320 322 322 322 323 323 323 326 328
314 312 313 314 314 313 313 313 313 314 314 313 313 313 314 313 312 311 311 310 310 310 311 311 312 312 314 315 313 312 313 315 316 317 316 315 315 315 313 314 316 315 313 313 312 310 310 310 310 309 310 310 309 308 308 309 311 312 311 310 308 308 308 308 309 309 309 310 311 312 312 313 317 319 319 318 318 319 320 320 318 316 317 318 319 322 324
314 313 313 314 314 314 314 313 313 314 314 313 312 311 311 311 310 310 309 309 310 310 310 311 312 315 317 318 317 315 316 318 319 319 318 317 316 317 316 315 316 315 313 312 312 311 310 311 310 309 309 309 308 307 307 309 310 310 309 308 308 308 309 309 310 309 309 309 310 311 311 312 315 317 316 315 316 317 318 317 316 315 316 317 319 321 323
315 314 314 314 314 314 314 314 314 314 313 313 313 313 312 311 310 309 309 310 311 311 310 310 313 316 318 319 321 319 318 319 321 321 320 317 316 317 317 315 315 315 314 313 312 312 311 310 309 309 308 306 305 305 308 309 308 307 308 310 310 312 313 313 312 310 309 309 309 310 310 310 312 313 313 313 316 317 316 316 317 318 319 319 319 320 323
318 317 316 315 314 314 314 314 313 313 313 314 315 314 313 311 310 310 310 311 312 314 313 312 313 316 318 322 325 322 318 320 323 322 320 318 317 316 316 316 316 316 314 313 313 313 311 310 309 309 308 305 305 307 308 308 307 308 310 311 313 314 317 317 315 312 310 309 310 310 310 310 311 311 312 314 316 317 318 318 317 318 319 321 320 320 322
320 319 318 315 313 313 314 314 314 315 316 317 316 314 312 310 309 310 311 311 311 314 314 313 315 318 320 322 323 321 319 322 324 322 320 320 319 317 317 317 318 316 314 314 314 314 312 311 311 310 308 308 309 309 308 308 309 310 311 312 313 314 318 320 318 315 312 311 310 310 310 311 311 311 313 315 317 318 318 319 318 318 319 321 321 322 325
321 320 319 316 315 316 318 318 317 317 318 317 314 311 311 310 310 311 311 311 311 312 311 313 318 321 320 320 321 321 321 324 324 323 322 322 320 319 319 319 318 317 316 317 316 314 312 311 310 309 309 310 311 309 308 309 310 310 311 312 312 313 316 318 317 315 313 312 311 311 311 311 311 312 313 315 317 318 318 319 320 320 319 320 322 326 329
322 321 319 317 320 325 326 322 320 318 317 314 313 313 312 311 312 314 313 312 313 313 311 313 320 321 319 320 323 323 322 324 325 325 324 323 320 319 320 320 318 318 318 319 317 314 313 313 310 309 310 312 311 310 310 309 309 310 311 311 311 311 312 314 315 314 313 312 313 312 312 312 312 313 314 316 317 318 319 320 321 321 322 323 326 328 327
322 322 320 320 324 328 325 321 318 317 315 313 314 318 317 315 317 321 318 315 316 317 315 316 322 323 321 323 325 323 320 323 325 325 325 324 322 321 321 321 320 318 318 317 316 316 316 315 311 310 311 312 312 311 311 309 309 310 311 311 311 310 310 311 313 314 315 315 315 313 312 313 313 314 316 318 319 320 322 322 321 323 325 325 325 323 322
322 322 323 325 326 324 320 317 315 315 316 316 317 320 321 321 323 326 324 321 323 323 320 321 325 325 322 324 326 324 321 323 325 326 326 324 322 321 322 322 321 320 320 318 317 317 317 315 312 312 313 313 312 312 311 310 310 310 310 311 311 310 309 310 311 313 314 316 317 316 314 315 316 317 318 319 319 320 321 321 320 321 322 322 321 320 320
321 323 325 325 323 319 317 315 314 315 319 321 322 324 325 325 326 328 328 326 326 325 323 323 326 327 325 325 326 326 324 324 324 325 325 324 323 321 322 322 322 321 321 319 318 317 315 314 313 313 313 314 313 312 312 311 310 310 310 311 311 311 310 309 310 311 311 313 316 317 317 317 317 318 318 318 317 317 317 316 316 317 318 318 318 317 317
319 320 320 319 318 317 317 317 318 320 324 325 325 327 327 325 325 328 329 325 323 324 325 325 324 324 324 324 325 326 325 324 324 324 325 326 324 323 322 322 320 319 319 319 319 317 315 314 315 315 314 314 314 313 312 312 311 310 310 310 311 311 310 309 309 310 310 312 314 316 317 316 316 316 315 315 314 314 314 313 313 313 314 314 315 315 315
320 321 319 319 320 322 322 321 322 325 326 326 325 326 327 325 325 327 328 325 322 324 325 324 322 322 322 322 324 325 323 322 324 326 327 325 322 320 320 319 317 316 316 318 318 316 314 314 315 315 315 314 314 313 313 313 312 311 310 310 310 311 310 310 309 309 309 310 312 313 314 315 315 315 314 313 313 312 312 312 312 311 311 311 312 312 312
323 325 323 324 327 327 324 321 321 321 322 325 327 327 326 325 325 324 325 324 324 324 326 325 325 326 326 326 326 328 327 325 324 324 323 320 317 316 317 318 317 315 316 317 317 316 314 313 315 315 315 314 314 313 313 313 312 312 311 310 310 310 310 310 310 310 309 309 310 310 311 312 313 313 314 314 313 313 312 311 311 311 310 310 310 310 311
327 328 325 325 325 323 320 320 321 320 318 320 323 323 321 321 322 321 320 321 322 322 324 326 327 328 328 326 324 325 328 329 325 320 317 318 318 317 317 317 316 315 316 316 316 316 314 314 315 315 315 315 315 314 314 313 313 312 311 311 310 310 310 310 310 310 310 310 309 309 310 311 311 312 312 313 313 313 313 312 311 311 310 310 310 310 310
326 326 323 321 321 320 319 319 320 319 317 317 318 318 318 319 319 319 318 319 318 317 319 323 326 327 327 326 324 323 325 325 322 318 317 319 319 317 316 316 316 316 316 316 316 315 314 314 315 314 314 314 314 314 314 314 314 313 313 312 311 311 310 310 310 310 311 311 310 309 309 309 310 311 311 311 311 312 313 313 313 312 311 311 311 311 310
321 321 321 321 320 321 321 318 316 316 316 317 317 317 317 317 318 318 317 317 316 316 319 324 327 327 326 326 324 322 320 319 319 318 317 318 317 316 315 316 316 316 316 316 315 314 314 315 315 314 313 313 313 313 314 314 314 313 313 313 312 312 311 311 310 310 310 310 310 310 309 309 308 309 310 311 311 311 311 311 312 312 312 312 313 313 312
319 319 320 321 319 317 316 317 318 318 318 317 317 318 319 318 318 318 317 316 316 319 321 323 324 326 326 325 323 321 319 319 319 318 317 317 316 316 316 316 315 315 315 315 314 314 314 315 315 314 314 314 314 314 314 314 313 313 313 313 313 312 312 312 311 311 310 310 310 310 310 310 309 309 309 309 310 310 310 310 310 311 311 312 312 313 313
317 318 319 321 321 317 316 319 321 320 318 318 318 319 320 319 318 317 318 318 319 320 321 320 320 322 322 321 320 320 318 318 318 317 316 317 316 315 315 316 315 315 315 314 314 314 315 316 315 315 315 315 316 316 315 314 313 313 313 313 312 312 312 312 312 312 311 311 310 310 309 310 309 309 309 309 309 309 309 308 309 309 310 310 311 311 312
317 317 319 321 322 320 319 322 323 319 317 318 319 318 317 318 318 317 317 318 319 320 321 321 321 320 319 319 320 319 317 317 318 317 317 317 316 315 315 316 315 314 313 314 315 315 316 315 314 313 313 313 314 315 316 316 315 313 313 313 312 312 311 311 311 311 310 311 310 310 309 309 308 308 308 309 309 308 308 307 307 307 308 309 309 310 310
318 318 319 320 321 319 318 319 320 318 317 317 317 316 316 318 318 316 315 317 320 320 319 318 319 320 319 319 319 318 317 317 318 317 316 316 316 315 314 315 315 314 314 315 316 316 314 313 313 313 312 312 312 313 314 314 314 313 312 312 312 311 310 310 309 309 309 309 309 309 309 309 308 307 307 307 307 307 308 307 307 306 306 307 307 308 308
319 319 319 319 320 320 320 319 319 319 318 317 317 317 317 317 317 314 315 318 320 318 316 317 318 319 318 317 316 317 317 317 316 315 315 316 317 316 316 315 315 316 316 316 316 315 312 312 313 313 312 312 312 311 309 310 312 313 312 311 311 311 311 310 309 308 308 307 307 307 308 308 307 307 306 306 306 307 307 307 306 305 305 305 305 306 307
Wind_Speed
25 27 28 28 29 29 29 29 29 28 28 28 26 17 6 2 7 15 21 32 27 8 4 7 5 3 6 7 6 7 6 5 8 7 6 4 2 2 2 2 3 3 3 4 6 7 5 4 6 7 8 8 10 14 17 17 15 10 7 8 11 9 3 3 6 7 8 12 12 9 9 11 11 9 6 8 9 8 7 6 5 5 6 5 3 3 7
26 27 27 27 28 28 28 28 29 26 25 26 21 10 2 3 6 9 18 31 21 4 4 6 4 6 10 9 8 8 5 7 9 9 7 4 2 3 2 2 3 4 5 4 5 7 6 5 5 7 6 6 10 13 16 17 12 7 8 9 8 7 3 4 6 5 5 6 5 5 6 5 7 9 10 11 12 9 5 4 5 5 6 8 5 4 7
26 26 26 26 26 27 27 27 27 26 23 23 19 7 3 4 3 4 14 24 14 5 3 3 3 7 10 10 11 9 7 7 9 8 6 5 5 4 3 5 4 4 5 5 6 8 7 4 2 4 5 5 7 10 15 16 12 10 13 13 6 4 4 3 4 3 3 5 4 2 5 4 4 8 14 15 12 12 7 4 5 6 5 7 6 5 9
26 26 25 25 25 25 26 25 26 25 22 21 19 9 3 2 2 3 8 10 6 3 3 4 4 5 7 7 9 10 9 7 8 7 6 9 11 6 3 6 5 5 7 6 6 7 8 7 4 3 5 5 4 9 13 14 13 14 15 13 6 3 4 5 4 4 5 7 9 10 9 7 8 10 12 16 14 12 10 5 5 7 5 5 7 7 12
26 26 24 24 24 23 24 24 24 24 21 18 16 8 2 1 2 4 5 4 4 5 5 7 6 5 5 4 5 9 9 7 7 7 5 9 10 5 4 7 6 5 7 5 4 6 8 9 7 3 4 5 5 9 11 11 12 14 14 12 7 3 4 6 8 11 12 13 16 16 14 12 12 12 12 16 18 14 12 9 7 7 7 6 8 8 13
26 25 24 24 23 22 22 22 22 22 19 16 12 4 1 2 1 2 3 2 4 6 7 9 8 7 6 3 3 8 10 8 8 6 6 8 9 5 3 5 6 6 6 4 3 4 6 7 6 4 4 6 6 7 8 8 12 16 12 9 6 3 4 6 10 17 19 17 16 15 13 12 12 10 10 12 18 18 13 10 8 8 8 8 7 9 13
26 25 24 23 23 22 20 20 20 19 17 14 9 2 0 1 1 1 3 1 3 6 9 11 10 7 5 3 2 7 9 9 8 6 6 7 7 6 5 5 7 8 7 5 3 2 4 6 6 5 6 7 5 4 5 5 10 14 10 7 6 2 4 7 12 17 19 16 13 12 10 9 9 9 8 7 12 19 15 9 9 8 8 8 7 10 13
25 24 23 22 21 20 19 18 17 16 15 11 5 1 1 1 0 1 2 2 4 6 8 8 7 5 4 2 1 4 6 8 6 5 6 7 6 6 7 7 9 9 8 6 4 4 5 7 8 7 8 7 2 0 1 3 7 10 8 7 6 3 5 10 11 11 13 11 10 13 12 10 9 9 7 6 4 12 15 11 8 5 6 7 7 8 10
24 23 22 21 20 18 17 17 14 13 12 7 2 2 3 2 1 0 1 4 4 4 5 5 5 4 2 1 0 2 5 5 3 4 7 6 5 7 8 9 8 7 7 7 5 5 6 9 12 11 10 7 4 1 1 4 8 8 7 6 6 4 5 7 8 7 7 8 12 16 15 12 8 6 7 8 4 5 10 9 8 6 6 5 6 6 7
23 22 21 19 18 17 16 15 13 11 10 6 2 2 2 2 2 1 1 3 3 3 5 5 4 3 2 3 3 4 7 4 4 4 6 4 6 8 10 10 7 4 5 5 6 6 8 10 12 11 10 10 8 5 5 6 7 6 6 6 6 5 5 4 5 5 7 9 15 16 12 6 3 3 8 10 4 2 2 0 2 1 2 5 6 6 7
21 21 20 18 18 17 15 14 12 10 9 8 5 5 5 3 1 1 1 3 2 2 4 4 3 3 5 7 7 7 9 5 3 1 3 5 8 10 10 9 6 3 3 5 6 8 9 10 10 9 9 11 11 8 8 11 11 9 7 6 6 6 6 5 3 3 7 12 16 12 3 1 2 2 9 14 8 12 16 11 8 11 9 2 3 5 5
21 20 19 18 17 16 14 13 12 9 9 10 9 10 11 7 3 1 2 3 3 2 3 4 5 7 9 10 9 8 7 5 3 5 6 7 10 10 8 6 3 3 4 6 8 8 7 8 8 9 10 12 12 12 13 15 14 12 10 8 7 7 6 5 3 2 6 9 8 3 5 3 5 5 12 15 10 11 17 17 19 21 17 13 11 7 1
20 19 19 17 16 15 13 12 11 10 10 10 10 12 12 8 5 2 2 3 3 3 4 7 9 11 12 11 10 8 5 6 7 8 7 8 9 9 6 3 2 4 6 7 7 6 4 5 6 7 10 10 10 11 14 16 15 14 13 11 9 8 6 4 3 3 3 5 4 3 6 5 11 11 14 16 14 11 10 16 20 19 16 13 12 12 8
20 19 18 17 15 14 13 11 11 11 10 10 11 13 13 10 8 2 1 3 4 3 5 7 6 8 9 8 7 8 6 6 6 5 6 7 8 8 5 3 4 6 5 4 4 2 2 2 3 4 6 5 4 5 8 10 13 15 15 13 11 9 7 4 3 3 1 3 5 3 3 8 10 10 12 13 11 11 7 8 10 13 14 13 12 13 13
20 18 17 17 15 14 12 11 11 11 10 10 11 12 14 13 11 5 3 2 4 4 4 5 4 5 7 7 7 7 6 4 3 4 6 6 6 7 6 5 7 7 3 1 1 1 1 1 2 3 3 3 3 2 3 4 6 11 15 14 11 10 9 5 3 2 2 3 4 4 4 2 5 11 16 15 11 12 8 3 7 11 15 15 13 13 13
20 19 17 16 15 13 12 11 11 11 10 10 11 12 14 13 13 11 5 2 3 3 3 4 5 4 5 7 8 7 4 3 3 4 5 5 5 7 7 7 9 6 3 2 1 1 2 1 0 2 2 3 4 4 3 4 5 6 8 13 14 12 9 6 4 3 3 3 2 4 1 1 7 16 20 20 18 14 8 3 7 11 15 15 13 14 14
19 18 17 15 14 14 13 13 12 11 10 11 11 12 14 12 13 13 7 2 3 4 4 5 6 4 3 4 5 4 3 2 1 1 2 4 5 7 7 7 7 3 2 2 2 2 2 1 1 2 2 3 5 4 4 4 4 7 5 6 11 9 7 5 5 4 3 3 2 3 2 1 11 18 18 21 21 11 1 6 5 9 14 13 11 13 14
20 18 16 15 15 15 14 14 13 11 11 11 11 12 14 13 12 14 8 2 3 4 5 7 8 4 3 3 4 3 3 3 1 1 2 3 3 4 5 5 5 2 2 2 2 2 2 1 1 1 2 3 4 3 3 4 3 5 7 3 4 5 5 6 6 4 3 3 2 2 2 2 11 16 18 20 16 4 8 6 2 7 10 10 11 12 12
20 19 17 16 16 16 14 13 13 11 10 10 10 12 12 11 12 14 9 2 3 4 2 3 5 5 6 5 5 5 5 4 2 1 3 3 2 4 6 4 3 3 2 2 1 1 2 1 0 1 2 2 3 3 3 4 3 4 6 5 1 2 4 5 5 3 1 2 3 3 0 5 11 14 15 15 8 4 5 2 1 6 8 8 11 13 12
20 19 18 17 16 15 14 13 12 11 10 10 10 11 12 11 11 14 13 6 2 4 6 8 11 13 11 8 6 6 5 4 2 1 2 3 2 5 5 2 2 3 2 3 2 1 1 2 2 1 1 2 3 2 3 4 4 3 4 4 2 2 2 3 4 2 1 2 2 2 2 5 12 11 9 11 8 3 2 3 3 7 8 8 10 12 12
20 19 19 18 16 15 14 13 12 11 10 10 9 10 11 11 10 13 16 13 5 2 5 7 10 13 12 11 12 12 10 7 7 4 4 4 1 2 2 2 2 2 1 1 2 1 0 1 2 1 2 2 2 2 4 5 4 3 4 3 2 2 3 2 2 2 1 2 0 3 1 3 7 6 4 6 7 4 4 4 5 7 8 8 8 10 12
20 19 18 17 16 15 14 13 12 12 10 10 9 9 10 10 9 9 14 17 12 7 9 12 15 20 24 24 25 24 21 20 20 14 7 4 1 2 2 3 2 1 1 1 1 1 1 1 1 1 2 2 2 3 4 4 2 3 4 3 1 3 4 3 3 2 1 3 2 3 3 1 4 6 6 6 8 9 8 7 7 7 8 7 8 9 12
20 19 18 17 15 15 14 13 13 12 11 10 9 9 10 10 9 8 11 15 13 11 16 20 20 21 22 23 22 21 21 24 25 22 14 7 3 2 3 3 2 2 1 2 3 2 1 1 2 2 2 2 2 3 4 3 2 3 4 2 3 5 5 3 3 3 3 4 3 5 6 3 6 7 7 7 8 9 9 8 8 8 7 7 8 9 11
20 19 18 17 16 14 14 14 13 12 12 10 9 10 11 11 9 8 8 8 5 4 8 10 8 8 11 14 16 15 14 15 19 20 19 14 6 2 2 4 3 2 2 4 3 2 1 2 1 1 2 2 2 2 2 3 2 3 4 4 4 5 4 2 2 4 3 3 6 9 7 5 6 6 7 8 8 9 9 8 7 8 8 8 9 10 9
21 20 19 18 16 15 14 13 12 12 11 10 9 9 10 10 9 7 6 5 3 2 3 3 5 9 13 15 15 14 13 12 12 14 16 18 15 8 5 5 5 4 4 4 3 2 1 2 1 1 3 3 2 2 2 3 3 3 4 4 4 4 5 3 2 2 1 3 9 10 3 4 6 5 5 6 8 8 10 9 7 8 9 9 10 10 9
21 21 19 17 16 14 12 11 11 10 9 9 8 9 10 10 9 6 6 5 3 2 3 3 4 7 10 12 13 12 11 10 9 8 9 13 19 20 15 9 7 5 1 1 2 1 1 2 1 2 3 2 2 2 3 4 4 4 5 5 5 5 6 4 3 3 3 4 7 7 2 3 5 6 4 4 5 6 5 8 9 9 9 10 9 9 9
22 21 18 16 14 12 10 9 7 6 6 6 7 8 9 9 8 8 8 5 2 1 2 3 4 7 10 12 13 11 8 7 7 7 6 5 9 16 15 7 2 0 2 2 1 1 1 1 1 2 2 2 3 3 4 4 4 4 6 6 5 6 6 4 3 4 3 3 3 5 3 4 4 3 3 3 2 5 5 5 8 9 9 9 8 7 8
21 19 16 13 10 8 7 5 2 1 2 3 4 5 5 5 6 7 8 7 4 2 2 3 6 10 11 10 10 10 7 5 5 5 5 4 3 3 4 2 2 2 2 1 1 1 2 2 2 2 2 2 2 3 4 4 3 4 6 5 4 4 5 4 4 4 4 5 6 5 3 4 5 6 5 3 2 3 6 5 5 6 8 8 6 6 7
20 16 12 8 6 5 3 3 5 6 6 6 5 3 3 4 6 6 6 7 7 4 2 3 5 5 6 8 10 11 9 6 3 3 3 4 5 4 3 3 3 2 2 2 0 1 3 2 2 3 2 0 1 3 3 2 3 6 7 7 6 6 8 8 7 7 8 9 8 5 3 3 6 8 8 5 2 3 4 4 4 4 6 8 7 5 6
16 11 7 5 4 3 3 6 7 5 5 4 3 1 2 2 4 6 6 7 7 4 1 2 3 3 4 6 8 8 10 9 6 4 5 5 5 5 5 5 3 2 2 2 1 1 3 2 2 2 2 1 2 3 2 2 4 6 7 7 8 10 11 11 10 9 9 9 8 6 4 5 7 7 6 4 4 4 4 3 5 5 6 8 8 7 5
13 7 3 2 3 3 4 5 5 4 2 1 1 1 1 1 2 4 4 5 5 3 0 2 3 3 3 3 3 5 8 9 6 5 5 5 4 5 6 5 3 2 2 2 1 2 2 3 3 3 3 4 3 3 2 3 4 6 8 9 11 13 15 14 13 12 12 11 9 9 9 7 6 6 4 3 5 5 3 3 4 5 5 6 8 8 6
10 5 1 1 2 2 2 3 3 2 1 1 1 1 0 2 3 3 4 4 5 3 0 2 2 2 2 2 3 4 5 5 3 2 3 4 3 3 4 3 2 1 1 2 1 1 1 2 3 3 4 5 4 3 3 3 5 9 13 16 16 16 17 17 16 15 14 12 9 11 12 9 6 5 3 2 4 4 2 1 2 3 4 4 5 8 8
8 4 2 2 2 2 2 3 3 3 3 4 4 4 3 3 3 3 5 5 4 3 2 0 1 2 2 2 3 3 3 2 1 1 2 3 2 1 2 2 2 1 2 2 1 0 1 1 2 3 3 3 3 3 3 3 7 14 19 19 18 16 16 16 15 14 14 12 10 11 14 10 6 4 4 5 5 5 4 3 2 3 4 3 3 5 7
7 5 3 4 4 3 3 4 4 5 6 6 6 6 4 3 2 4 6 4 2 2 1 1 0 2 3 2 2 2 1 1 1 1 1 2 2 1 1 1 1 1 2 1 1 0 1 1 2 3 3 2 2 2 3 5 12 18 19 19 18 14 12 11 11 11 13 13 12 13 15 11 6 5 7 8 6 5 5 4 3 4 4 4 2 3 5
8 5 4 5 6 5 6 7 7 6 6 5 5 4 4 4 4 5 4 2 1 1 0 0 1 1 3 3 3 2 0 1 1 1 1 0 2 1 1 0 1 1 0 1 1 1 1 1 1 2 3 2 1 1 3 9 16 19 18 18 17 13 9 6 6 9 10 11 12 13 12 9 9 9 9 8 7 5 5 5 3 3 4 5 5 5 5
10 7 5 4 6 7 7 8 7 5 4 3 4 6 5 5 6 6 4 2 1 1 1 1 1 1 1 1 2 3 1 1 0 0 1 1 1 1 0 1 1 1 0 1 1 0 1 0 1 2 2 1 2 4 7 12 17 19 18 18 16 12 9 7 7 7 7 9 12 13 10 8 9 8 7 6 5 4 4 5 3 2 2 4 6 6 5
11 7 4 3 4 5 5 4 4 4 3 3 6 8 7 6 6 4 2 2 2 2 1 0 1 2 1 1 2 2 1 1 1 1 1 1 1 0 0 1 0 0 1 1 1 0 0 1 1 2 3 3 5 8 11 13 15 16 17 17 15 13 11 9 6 5 4 6 8 9 8 8 8 6 5 6 5 3 3 4 3 3 3 3 4 4 4
11 7 3 1 1 2 2 2 2 3 4 5 7 6 4 3 3 1 1 1 1 1 2 1 2 3 1 0 2 2 0 1 1 1 1 1 1 1 1 0 0 0 1 1 1 1 1 1 1 1 3 4 7 9 11 13 13 14 15 16 16 15 14 11 8 6 4 3 5 6 7 8 7 4 4 4 3 3 4 5 5 4 2 2 1 0 3
9 6 2 1 1 1 1 1 0 2 4 5 4 2 1 1 1 0 1 1 1 1 1 1 3 3 2 1 3 1 1 0 2 2 1 0 1 0 0 0 0 0 1 2 0 2 2 2 1 1 3 6 8 10 11 12 14 15 16 17 17 17 15 14 12 9 5 3 3 6 7 7 5 4 3 3 3 4 3 2 1 1 2 4 5 5 5
7 4 1 2 1 1 0 1 3 3 2 2 2 1 0 1 0 0 0 1 1 0 1 1 3 3 3 2 2 1 1 1 0 1 1 1 0 0 0 0 0 1 2 2 1 2 2 1 2 2 4 6 8 9 10 11 13 15 16 17 18 18 17 16 15 13 10 9 5 0 4 5 4 4 3 1 1 3 4 6 6 6 6 7 7 7 8
6 4 2 2 2 2 1 2 4 3 1 1 1 0 1 1 1 0 1 2 3 2 1 0 2 3 1 2 2 2 1 1 1 1 1 1 1 1 1 1 0 2 2 2 1 1 2 1 2 3 5 6 8 8 9 10 13 15 17 17 18 19 20 20 20 19 17 13 8 6 8 9 9 8 8 8 8 8 8 8 9 11 11 10 9 11 13
10 9 10 10 9 5 2 2 2 2 1 1 1 1 1 1 1 2 1 1 1 2 1 1 1 4 4 1 1 2 1 1 1 1 1 1 0 1 1 1 1 2 2 2 1 2 2 2 2 4 6 7 8 8 9 9 11 14 17 17 17 18 21 22 22 23 23 17 11 11 14 15 14 13 14 14 14 13 13 12 13 14 16 15 13 14 17
10 9 8 7 5 2 2 1 1 0 1 2 2 2 2 2 2 2 2 0 1 1 1 1 1 2 3 2 1 2 2 1 1 1 0 1 1 1 2 2 2 2 2 1 1 2 3 3 4 5 6 7 7 7 8 8 9 10 13 15 17 20 22 21 21 25 27 24 21 20 19 17 18 20 21 21 19 18 17 18 18 19 19 18 16 17 19
6 3 1 0 0 1 1 1 2 1 2 2 1 1 2 3 2 3 3 1 1 2 3 2 1 1 2 2 1 1 1 1 1 0 0 0 1 2 2 1 2 1 2 2 2 2 2 2 4 6 7 6 6 7 7 7 7 8 9 12 16 20 21 20 20 22 24 24 24 24 22 21 23 25 25 23 21 20 18 19 22 24 22 18 17 20 21
3 2 3 3 2 1 1 1 2 2 3 2 1 1 2 3 3 4 3 2 2 4 5 3 2 2 3 2 0 0 1 1 1 1 1 2 2 2 1 0 1 1 2 2 2 1 2 3 4 6 7 7 6 6 7 6 6 6 7 10 13 16 17 18 18 17 16 18 21 22 21 21 22 22 22 24 25 23 21 20 22 24 21 17 16 20 22
1 1 2 2 2 2 1 2 2 2 2 2 2 2 3 3 4 4 4 3 3 5 6 4 1 1 1 2 0 1 1 1 2 1 1 2 2 1 1 1 2 2 2 2 2 1 2 4 4 5 7 8 7 6 6 6 6 6 6 8 10 12 13 15 15 15 15 18 21 22 22 22 21 21 21 24 27 28 25 23 22 21 18 15 15 18 20
1 1 2 3 1 3 1 2 1 0 0 1 3 3 3 4 4 4 4 4 4 5 5 3 1 2 1 1 1 2 2 2 2 2 1 2 1 1 1 2 2 2 1 2 2 2 2 4 4 5 6 7 6 6 6 6 6 7 7 7 8 9 10 11 12 14 16 18 18 17 18 21 22 22 21 22 24 26 27 27 25 23 20 17 16 18 19
0 1 2 2 0 2 2 2 2 2 2 3 4 3 3 4 4 5 5 5 4 5 5 4 2 2 2 2 2 2 2 2 2 2 2 1 2 2 2 2 2 2 2 3 3 3 4 5 5 4 4 5 5 5 5 6 7 8 8 7 7 8 9 9 10 12 15 16 15 14 15 18 20 21 20 19 20 22 24 25 25 25 25 23 21 21 21
1 2 1 1 1 1 2 1 3 4 4 4 4 4 4 4 4 5 5 4 4 5 4 3 2 2 1 2 2 2 2 2 2 2 2 3 2 2 2 2 2 2 2 3 3 3 4 4 4 5 5 5 5 5 5 5 5 5 6 6 6 7 7 8 10 12 13 14 14 14 16 16 17 17 17 17 17 19 22 24 24 24 24 24 23 23 23
2 2 1 1 2 2 3 3 4 4 5 5 4 4 5 4 4 5 5 4 4 5 4 3 3 2 1 1 2 2 2 2 2 2 2 3 2 2 2 2 1 2 2 2 2 2 3 4 4 5 5 6 6 6 5 4 4 5 6 7 8 8 9 10 12 12 13 14 14 14 15 15 15 15 15 14 15 17 21 23 23 23 23 24 23 23 23
2 2 1 1 3 2 1 2 3 2 3 4 4 4 4 4 5 6 5 4 4 4 4 3 2 2 3 3 2 2 1 2 2 3 2 2 2 2 2 1 1 2 2 2 2 2 3 3 3 4 5 6 6 6 6 5 5 6 7 9 10 10 10 11 12 12 13 15 15 15 14 15 16 16 17 17 17 16 16 18 20 22 22 23 23 23 23
1 1 1 1 3 4 3 3 2 1 1 3 3 4 3 3 5 5 5 5 4 4 4 3 2 2 3 2 1 2 2 2 2 2 2 1 1 0 0 1 2 2 2 3 3 3 3 3 4 4 5 6 6 7 8 8 7 8 8 10 10 10 10 10 11 11 12 13 14 15 15 15 15 16 17 17 16 12 10 11 15 19 20 22 23 24 24
Wind_Direction
335 337 338 340 342 344 345 346 348 352 356 356 353 346 328 336 306 301 335 351 347 358 71 357 349 17 1 12 20 354 342 354 355 355 4 5 1 3 333 319 343 344 348 348 338 331 332 17 19 330 330 346 331 330 342 346 346 343 327 320 329 333 334 306 288 280 270 266 278 290 256 220 205 206 183 183 197 182 178 187 171 185 200 197 209 247 269
332 334 336 338 340 342 343 346 347 351 357 355 352 346 302 303 290 293 338 348 351 44 68 354 344 353 356 0 0 357 352 359 359 347 345 355 338 338 341 326 335 340 333 333 338 333 344 37 17 320 321 333 322 329 341 340 337 334 323 327 340 341 338 341 325 311 297 278 279 305 284 234 215 213 191 191 198 177 154 147 156 199 207 184 187 234 254
330 332 334 336 338 339 340 344 347 349 353 352 351 341 275 308 280 269 335 346 0 65 41 360 3 355 357 353 348 355 357 353 352 338 338 1 350 333 341 341 339 347 349 354 355 347 347 357 318 299 317 312 314 333 336 332 327 312 312 321 329 316 296 301 324 324 285 259 246 298 312 309 291 237 205 195 185 173 167 132 157 209 213 185 183 208 251
329 331 333 334 335 335 336 339 343 347 350 351 348 333 286 330 331 313 334 345 11 41 12 21 25 2 1 353 342 346 342 337 346 350 3 3 349 337 351 354 353 3 6 3 350 345 341 327 301 286 313 309 309 331 331 324 316 312 322 333 332 293 285 277 282 293 274 267 274 284 293 289 290 283 235 200 180 176 175 149 175 193 173 197 204 194 240
327 328 330 331 331 331 332 334 338 343 348 350 345 326 280 358 1 347 343 332 351 3 5 15 7 341 346 341 323 336 339 337 351 6 12 348 337 341 17 6 358 355 358 352 335 343 333 315 312 318 316 308 310 326 323 312 319 335 345 343 333 303 296 290 296 302 289 278 276 275 277 268 266 288 266 211 186 179 180 183 196 166 142 212 236 204 227
326 327 327 328 329 330 331 332 333 338 344 349 349 334 298 355 22 29 9 322 340 343 333 335 326 317 335 337 314 339 349 353 358 357 345 335 336 345 353 353 348 341 345 336 314 345 331 310 322 343 321 309 319 330 314 312 347 357 347 333 334 306 280 298 315 314 301 288 281 271 269 265 256 274 284 232 195 184 185 192 192 161 156 209 227 207 222
325 326 326 326 328 328 330 330 330 333 340 345 345 323 295 346 304 33 29 347 309 301 295 300 300 308 336 334 334 354 350 346 348 342 330 327 329 331 325 337 346 339 340 338 312 319 322 309 320 329 314 315 328 337 313 319 355 350 329 326 342 300 279 313 322 313 298 288 289 293 301 300 277 274 295 276 214 197 189 184 188 181 187 201 184 193 222
324 325 325 326 327 328 329 327 327 331 336 343 344 289 248 55 76 353 347 305 285 282 287 294 293 301 316 297 3 13 330 320 332 326 307 301 311 331 332 330 333 327 321 316 297 304 317 309 311 313 311 313 311 20 317 307 326 329 322 326 329 312 305 317 321 313 294 288 310 325 326 318 296 285 303 333 267 209 196 185 185 190 211 205 163 176 231
325 327 327 327 329 330 328 326 326 328 330 337 348 283 270 261 265 265 309 304 303 298 302 305 295 286 277 245 117 345 301 303 325 294 274 272 302 327 319 310 314 318 313 300 294 318 322 306 302 300 295 290 273 216 244 289 308 319 318 312 312 315 305 308 324 317 286 305 336 331 318 311 310 320 341 7 32 207 209 192 173 178 206 191 141 166 233
326 328 328 328 329 330 328 326 326 324 318 305 253 241 263 274 289 138 173 290 299 305 305 303 293 281 291 323 332 312 308 347 41 322 291 287 307 308 299 295 297 302 301 292 293 307 309 300 295 288 278 275 271 255 235 248 268 280 290 298 297 295 293 304 329 313 283 309 324 317 314 329 334 351 359 354 359 58 16 6 153 142 193 171 170 202 221
327 327 327 328 328 329 329 327 324 320 307 289 259 242 246 247 248 177 223 271 277 296 306 302 293 301 317 324 324 309 312 343 75 197 275 295 299 294 288 287 284 266 266 280 290 290 289 289 288 284 281 278 276 267 243 236 239 243 256 274 276 278 287 293 302 292 287 303 311 307 309 95 247 310 18 5 17 73 69 52 30 19 13 356 246 232 190
327 327 327 328 328 328 326 324 323 317 301 288 271 260 257 243 221 220 245 268 281 285 290 286 285 299 306 303 301 301 305 307 270 245 254 277 288 290 289 289 283 259 269 292 301 297 291 291 289 289 287 279 271 263 250 239 237 236 235 243 261 272 277 278 270 255 278 301 316 275 189 215 298 351 24 16 20 71 72 54 35 25 13 359 346 329 221
327 327 327 327 327 325 323 321 317 309 298 286 269 266 264 238 203 196 225 252 274 265 273 286 283 284 287 289 298 306 286 267 276 279 280 287 291 298 306 314 312 295 292 300 307 309 313 308 297 290 289 281 264 251 245 240 236 237 235 233 243 256 263 271 264 250 279 321 329 203 206 310 346 6 13 10 2 355 26 46 34 17 7 360 356 350 337
326 325 325 325 325 324 323 321 312 302 298 287 270 269 264 232 202 182 201 248 271 272 279 292 284 274 282 297 319 324 303 282 291 302 304 301 300 310 326 336 322 308 298 301 318 337 345 326 317 307 299 298 282 246 245 243 236 234 234 231 232 240 249 265 259 246 295 330 296 275 329 342 352 360 348 350 347 320 328 61 40 7 5 1 2 4 350
324 324 323 322 323 323 322 316 307 301 297 288 273 268 264 243 222 204 169 222 284 292 268 248 243 279 314 325 319 311 305 302 308 309 307 302 301 312 322 321 318 318 320 343 359 359 338 342 355 334 315 323 342 340 307 288 258 239 230 224 225 233 234 236 244 251 353 358 313 328 8 350 335 334 323 322 319 288 273 71 45 8 2 357 2 10 358
324 323 322 322 322 320 317 311 305 302 297 289 277 268 267 256 233 214 188 171 258 273 252 223 233 281 311 304 292 290 293 303 309 313 317 317 313 313 314 314 317 330 13 28 28 32 6 20 317 299 280 299 321 334 340 329 319 295 243 212 214 228 232 236 246 259 325 350 326 320 321 161 336 328 318 319 318 288 255 79 40 1 350 349 1 10 5
323 322 321 324 323 319 316 312 308 306 297 289 283 271 268 264 237 216 203 184 223 248 279 272 272 297 302 280 284 292 294 294 280 286 310 309 306 309 317 321 320 339 55 26 8 43 18 344 324 302 265 294 312 323 344 338 332 340 333 208 207 222 230 240 246 245 285 298 288 299 267 302 329 321 312 314 314 302 132 81 24 341 339 341 359 15 13
320 321 322 325 323 319 317 312 307 303 292 284 281 270 267 267 245 220 206 202 238 245 261 254 245 238 234 258 288 294 288 294 273 219 279 281 282 305 326 339 331 331 43 22 19 42 17 334 352 317 277 312 335 333 338 341 333 335 339 322 215 216 219 238 249 245 267 283 286 283 258 333 325 312 308 313 315 351 76 79 306 321 338 346 1 17 21
319 321 323 324 320 318 317 312 306 302 291 280 276 268 266 268 248 222 205 189 236 238 250 248 235 237 249 268 284 279 275 283 274 252 283 277 292 323 327 346 350 323 349 17 29 52 8 319 306 293 279 311 345 336 321 330 332 322 322 329 323 212 219 234 244 245 249 269 288 287 296 360 333 313 314 330 348 72 67 37 312 343 351 1 11 18 22
321 321 322 322 320 318 316 313 307 301 293 285 275 267 267 271 253 229 216 210 234 254 260 256 252 254 261 266 265 264 273 279 238 176 248 266 338 355 330 317 336 318 332 11 1 23 40 303 301 330 310 294 309 328 333 319 309 306 313 328 352 339 290 244 231 240 191 208 266 343 45 344 328 322 337 2 21 64 327 328 25 17 5 9 18 20 21
322 322 322 322 320 318 316 313 310 302 295 290 281 272 271 274 265 243 231 227 229 280 271 256 251 254 259 262 262 265 270 268 256 246 254 260 291 29 311 286 322 329 337 21 331 313 68 286 293 319 328 303 297 326 340 325 308 313 329 325 324 357 2 322 281 346 47 183 228 32 61 313 336 356 37 24 6 355 344 357 28 27 14 12 17 18 18
323 323 323 323 321 320 316 312 309 302 297 293 284 276 271 271 275 267 243 229 226 245 264 271 278 277 275 275 273 268 264 262 261 260 263 276 244 172 236 292 286 225 195 117 169 268 323 312 287 300 302 299 300 315 322 314 297 331 345 340 326 353 359 322 289 307 296 257 287 316 277 278 41 50 56 30 6 6 13 18 27 27 14 10 16 14 12
324 324 325 325 323 321 315 310 307 302 298 295 282 271 270 272 280 281 249 230 228 249 261 268 279 282 279 280 283 279 267 259 257 252 243 243 255 210 212 255 249 200 197 179 171 181 217 210 225 262 265 267 297 314 308 284 274 328 340 333 299 308 314 295 280 301 288 268 297 326 325 18 70 78 71 48 19 7 9 14 23 22 11 14 21 14 7
325 325 326 325 322 319 314 309 306 302 297 293 281 271 273 276 279 278 252 231 233 267 263 257 260 265 272 284 297 300 285 263 259 256 241 224 220 267 232 201 173 151 222 223 198 167 190 216 230 272 267 265 278 288 284 281 305 335 336 321 295 296 312 321 297 312 319 307 327 334 344 37 64 72 77 65 40 14 3 5 17 13 9 19 21 10 5
325 324 324 323 320 316 312 307 303 299 294 287 276 268 265 266 271 269 248 239 250 282 278 266 247 255 274 287 289 293 296 290 284 273 246 220 211 229 253 220 200 208 223 212 177 142 233 252 264 285 276 271 265 262 269 285 310 329 320 302 291 309 335 338 282 278 305 287 300 309 319 89 70 60 69 68 58 31 2 352 4 13 17 25 17 1 358
325 325 324 324 321 316 311 306 300 292 285 275 264 255 252 257 264 255 237 242 254 249 268 285 268 269 289 296 291 294 306 307 300 290 264 233 220 226 240 251 244 236 229 115 125 131 233 253 248 259 272 292 318 305 284 274 287 298 283 270 273 294 306 301 283 297 295 274 293 315 352 53 41 48 57 57 77 79 31 355 355 9 22 27 16 355 350
326 325 325 324 321 317 313 309 301 284 272 259 243 237 238 244 245 232 227 237 260 283 268 270 289 304 304 298 302 315 318 301 306 319 317 292 238 229 234 246 254 189 50 32 17 41 17 284 286 265 265 307 334 313 285 281 286 280 269 266 270 275 275 276 289 300 280 250 295 345 346 303 317 360 30 18 50 102 96 43 6 5 13 16 8 353 346
330 329 329 327 327 327 324 326 345 114 144 165 185 203 216 222 223 224 231 237 239 262 291 279 291 305 306 300 312 329 322 294 310 333 330 346 353 267 239 198 121 109 82 50 347 351 322 292 295 292 290 333 331 298 288 296 290 266 262 264 253 249 266 280 277 272 273 274 293 323 327 277 289 315 324 323 3 78 93 80 41 11 0 356 353 350 347
335 336 336 338 346 352 5 73 100 106 114 126 142 180 225 225 214 215 230 238 233 239 301 297 281 294 310 308 314 330 341 342 349 355 360 39 59 62 77 96 102 106 100 104 103 305 298 283 269 274 279 296 284 285 289 285 266 265 273 279 276 273 280 284 276 274 283 286 288 306 324 297 299 309 306 301 346 62 75 83 79 40 358 343 338 340 345
339 340 341 356 16 39 92 117 118 112 111 124 145 205 271 249 204 201 221 235 227 220 290 307 287 304 319 306 306 327 345 354 8 31 34 48 70 82 93 100 93 79 85 81 51 323 304 300 285 280 296 302 279 278 280 267 266 272 277 284 290 290 286 282 277 274 273 273 277 285 291 289 290 291 290 308 357 23 41 62 65 47 13 349 336 331 341
340 334 336 24 52 83 118 132 134 129 125 150 193 203 358 338 205 191 205 219 210 194 215 267 273 300 306 288 292 317 330 343 8 48 48 47 63 74 82 89 79 66 91 89 15 323 309 315 312 313 329 330 310 277 277 289 279 275 285 298 303 298 292 285 278 271 267 269 279 285 282 274 272 273 282 340 356 360 30 66 56 44 33 5 339 327 334
339 322 289 100 89 103 132 158 165 170 208 257 253 163 354 311 278 209 186 193 188 169 31 289 282 311 309 292 297 306 318 336 5 52 40 36 58 66 51 50 60 58 76 88 48 322 314 308 295 299 324 334 322 294 294 289 269 280 298 306 301 292 285 279 273 267 264 265 271 278 275 260 229 226 247 314 335 338 356 34 36 50 61 40 351 332 332
335 308 257 199 182 166 185 203 215 247 268 271 271 262 256 280 281 190 164 170 169 149 128 306 303 299 285 289 312 314 319 333 335 77 40 16 16 81 48 44 71 38 7 37 96 189 291 296 292 300 321 347 334 304 290 273 278 291 299 298 290 282 274 269 265 259 254 250 244 248 255 249 224 232 289 314 319 311 305 303 333 27 48 54 22 333 318
336 319 285 245 229 224 229 231 241 262 270 275 278 266 239 225 208 161 153 157 141 110 108 101 357 296 287 297 323 322 4 39 344 10 38 349 331 75 101 11 20 30 4 23 119 126 309 316 317 312 318 349 352 312 279 284 295 300 301 298 295 291 277 263 255 248 245 243 236 235 242 245 245 266 286 290 290 299 308 315 340 7 7 3 349 305 291
337 331 302 264 246 243 249 253 257 261 266 270 260 229 189 167 161 159 162 169 71 54 346 208 176 298 320 340 325 300 174 115 358 344 111 52 337 6 117 74 4 25 68 99 85 53 335 304 301 300 298 310 332 293 288 302 307 310 313 313 313 312 303 278 251 238 238 239 239 241 242 238 235 242 252 255 260 275 289 295 320 357 349 332 324 309 291
333 331 317 275 255 258 265 264 255 245 247 241 199 173 148 130 142 161 191 225 192 193 266 299 213 231 280 329 302 293 321 57 28 65 123 105 2 321 133 79 27 353 133 97 67 348 308 287 312 307 307 344 359 338 326 323 321 321 325 326 323 320 318 303 274 251 238 230 234 242 243 233 230 229 226 230 237 244 259 274 300 338 321 307 308 306 299
346 340 328 294 269 274 274 257 232 223 220 180 149 140 127 119 130 150 230 260 205 191 175 60 266 241 208 240 276 287 340 7 20 79 101 112 112 265 329 80 76 267 15 21 358 285 85 73 42 338 333 4 7 349 342 340 334 332 338 344 344 341 338 330 309 290 271 235 230 236 237 236 233 218 207 224 237 238 254 268 263 250 252 266 280 295 313
352 344 332 333 338 314 299 269 242 223 191 158 136 126 129 144 143 157 265 248 212 206 156 154 259 261 156 139 269 273 322 328 340 31 67 117 98 351 349 45 191 225 2 349 256 163 113 57 53 12 336 352 5 358 353 352 349 346 352 360 360 355 354 355 349 334 311 259 228 219 220 230 230 202 188 217 236 234 239 244 242 239 234 203 186 45 21
344 337 331 130 183 274 303 352 209 186 168 159 153 150 170 168 134 347 229 194 229 258 164 191 249 235 191 240 284 287 128 103 348 354 349 29 66 39 327 308 233 110 29 357 9 111 73 353 351 23 354 355 4 1 356 357 359 359 1 5 6 4 3 4 360 355 350 329 257 213 200 200 196 172 168 213 251 265 270 277 305 350 72 96 95 83 61
320 303 258 167 175 257 356 127 164 179 167 164 189 232 117 125 154 174 172 333 327 278 163 236 263 232 189 212 272 292 120 134 329 327 316 325 5 140 195 287 43 66 25 347 348 80 73 319 313 1 13 9 5 359 355 2 8 7 6 8 8 6 8 12 14 14 12 7 358 191 161 154 152 145 136 145 319 1 25 36 38 38 50 64 71 76 73
300 281 243 238 286 322 327 185 189 211 237 193 182 357 13 330 278 165 82 21 331 296 191 156 308 297 251 195 214 242 250 205 166 123 41 347 352 96 58 347 45 76 30 326 317 50 50 310 311 358 7 5 1 357 360 8 13 13 11 10 9 9 12 17 21 22 18 13 19 52 69 69 70 72 72 70 63 53 50 49 45 42 40 40 49 66 69
293 279 271 273 281 283 250 211 209 227 279 25 31 345 327 346 354 347 15 78 319 291 273 117 289 289 292 287 246 247 235 173 134 106 75 320 250 117 66 337 17 67 39 309 302 26 9 334 356 10 0 354 356 1 6 10 14 17 16 12 10 14 16 17 21 23 21 19 31 53 58 59 61 63 66 70 70 64 56 51 47 42 36 32 40 58 65
307 285 272 271 270 212 174 223 255 134 70 37 36 1 331 338 353 328 306 246 152 252 257 143 154 284 297 291 243 235 203 145 124 115 123 254 274 73 54 6 8 52 58 15 15 21 359 345 3 7 356 352 358 5 7 7 10 17 18 15 15 18 20 19 23 26 23 23 34 47 50 53 58 61 61 65 69 68 60 53 50 46 39 33 38 52 58
326 300 283 262 208 141 128 304 308 51 40 9 45 64 354 335 338 342 332 309 235 264 271 228 179 265 287 258 205 213 211 158 132 93 74 45 6 23 38 2 330 9 55 48 19 8 352 341 351 354 355 0 6 6 5 8 12 17 21 21 21 24 25 23 25 29 27 25 31 41 46 48 52 54 51 51 59 66 64 57 54 52 46 40 45 54 56
334 343 28 22 345 353 63 10 338 23 34 4 331 67 15 346 336 332 319 286 278 309 307 278 214 233 274 267 158 110 243 174 108 28 19 60 38 7 357 262 318 354 41 36 3 4 15 360 349 349 350 352 358 0 2 5 4 8 21 26 26 29 32 29 26 29 30 26 27 34 39 41 45 48 45 44 49 59 65 64 62 58 51 46 51 58 60
319 323 64 67 335 308 58 54 3 1 21 357 349 17 16 350 319 302 295 291 309 315 304 288 251 64 310 289 333 3 325 87 78 13 2 77 60 333 291 62 23 9 32 25 353 344 358 352 347 349 350 350 356 4 5 2 358 2 17 30 31 34 39 39 35 34 35 34 33 36 38 38 39 42 44 43 44 47 49 53 59 62 59 54 57 62 63
305 332 71 87 343 321 27 61 25 329 120 15 20 27 11 339 315 303 300 303 312 313 305 300 20 67 351 319 19 10 347 16 54 19 16 72 71 323 351 48 31 3 19 21 356 328 329 339 346 352 348 347 353 359 358 359 4 9 15 24 29 33 39 45 45 42 40 40 41 42 44 43 41 40 40 43 44 44 41 40 44 50 51 51 56 62 65
226 14 71 114 211 330 1 9 359 11 21 13 8 5 360 353 344 328 312 308 323 338 340 347 21 33 349 355 40 35 355 4 35 14 354 38 58 13 5 22 14 6 31 31 13 354 338 333 336 338 332 328 337 353 2 5 9 13 15 16 18 27 37 44 48 49 47 46 45 45 46 48 48 44 40 38 41 44 44 43 43 45 45 44 45 48 54
105 55 57 132 129 323 321 6 43 29 4 357 359 353 354 360 347 322 315 330 347 341 333 347 36 42 344 347 37 38 8 10 32 19 5 25 37 13 353 359 359 358 14 26 18 356 333 322 328 338 338 336 340 353 4 7 5 7 9 3 360 13 32 39 41 45 47 48 50 50 49 51 54 53 48 41 38 40 44 46 47 46 46 44 43 44 46
70 71 45 49 53 6 332 5 38 17 345 348 357 349 347 351 330 310 319 350 356 344 342 1 25 32 15 14 41 46 26 23 44 46 33 27 11 351 5 29 8 320 326 350 348 318 306 314 332 343 346 348 351 349 350 353 358 6 11 6 1 11 33 43 43 43 44 47 52 55 54 54 55 56 56 55 51 47 45 44 44 44 45 46 46 46 46
17 53 52 77 97 100 33 32 56 49 5 2 347 326 337 347 323 315 334 8 17 14 14 5 355 22 32 24 21 40 45 45 53 54 45 28 12 8 11 357 308 278 285 296 290 291 307 324 336 342 344 347 348 345 341 340 345 1 20 25 19 18 31 44 48 47 48 50 53 54 54 55 57 58 59 59 58 54 48 45 44 44 46 47 48 48 48
38 67 31 41 100 115 102 68 65 87 43 8 327 317 348 350 315 320 4 39 44 35 24 7 10 53 51 17 345 24 39 45 52 51 38 16 15 28 218 252 271 283 292 297 297 302 324 330 327 330 338 340 342 350 357 357 352 357 16 32 33 28 28 37 45 49 51 51 51 53 55 57 59 60 59 55 53 50 45 43 46 49 49 49 51 52 51